Tracking 21612 objects as of 20-Oct-2020
HD Live streaming from Space Station
objects crossing your sky now

KAISTSAT 4

Track KAISTSAT 4 now!
10-day predictions
KAISTSAT 4 is classified as:


NORAD ID: 27945
Int'l Code: 2003-042G
Perigee: 676.1 km
Apogee: 693.1 km
Inclination: 98.1 °
Period: 98.3 minutes
Semi major axis: 7055 km
RCS: 0.503 m2 (medium)
Launch date: September 27, 2003
Source: South Korea (SKOR)
Launch site: PLESETSK MISSILE AND SPACE COMPLEX (PKMTR)

Turkey's first earth observation satellite; part of international Disaster Monitoring Constellation (DMC).
aabbcc
Your satellite tracking list
Your tracking list is empty




NASA's NSSDC Master Catalog

Two Line Element Set (TLE):
1 27945U 03042G   20293.88419266 +.00000019 +00000-0 +12524-4 0  9994
2 27945 098.1118 061.1831 0012052 000.0651 000.0551 14.64891595911755
Source of the keplerian elements: AFSPC